Kalamazoo, MI

12:29 PM EST on November 22, 2019 (GMT -0500)
Kalamazoo-Battle Creek International

Weather History for KAZO - October, 2019

Change the Weather History Date:

Saturday, October 19, 2019

  Actual Average Record
Temperature  
Mean Temperature 52 °F 50 °F  
Max Temperature 64 °F 59 °F 86 °F (1953)
Min Temperature 39 °F 41 °F 22 °F (1909)
Degree Days  
Heating Degree Days 13 15  
Month to date heating degree days 209 239  
Since 1 July heating degree days 236 388  
Cooling Degree Days 0 0  
Month to date cooling degree days 14 7  
Year to date cooling degree days 870 674  
Growing Degree Days 1 (Base 50)    
Moisture  
Dew Point 39 °F    
Average Humidity 64    
Maximum Humidity 85    
Minimum Humidity 43    
Precipitation  
Precipitation 0.00 in 0.11 in 2.05 in (1985)
Month to date precipitation 1.92 2.04  
Year to date precipitation 31.08 29.45  
Sea Level Pressure  
Sea Level Pressure 29.90 in    
Wind  
Wind Speed 6 mph (SSE)    
Max Wind Speed 13 mph    
Max Gust Speed 20 mph    
Visibility 10 miles    
Events      
T = Trace of Precipitation, MM = Missing Value Source: NWS Daily Summary

Daily Weather History Graph

Daily Weather History Graph

Search for Another Location

Airport or City:

Astronomy

Oct. 19, 2019 Rise Set
Actual Time 7:59 AM EDT 6:54 PM EDT
Civil Twilight 7:30 AM EDT 7:22 PM EDT
Nautical Twilight 6:58 AM EDT 7:55 PM EDT
Astronomical Twilight 6:25 AM EDT 8:27 PM EDT
Moon 10:58 PM EDT (10/19) 1:35 PM EDT (10/19)
Length of Visible Light 11h 51m
Length of Day
10h 55m
Waning Gibbous, 70% of the Moon is Illuminated
Oct 19
Waning Gibbous
Oct 21
Last Quarter
Oct 27
New
Nov 4
First Quarter
Nov 12
Full

Hourly Weather History & Observations

Time (EDT) Temp. Windchill Dew Point Humidity Pressure Visibility Wind Dir Wind Speed Gust Speed Precip Events Conditions
12:53 AM 45.0 °F 42.6 °F 36.0 °F 71% 29.98 in 10.0 mi SSE 4.6 mph - N/A   Clear
1:53 AM 45.0 °F 43.5 °F 36.0 °F 71% 29.98 in 10.0 mi SSE 3.5 mph - N/A   Clear
2:53 AM 43.0 °F 40.3 °F 36.0 °F 76% 29.99 in 10.0 mi SSE 4.6 mph - N/A   Clear
3:53 AM 43.0 °F 40.3 °F 35.1 °F 74% 29.97 in 10.0 mi SSE 4.6 mph - N/A   Clear
4:53 AM 42.1 °F 40.2 °F 35.1 °F 76% 29.96 in 10.0 mi SE 3.5 mph - N/A   Clear
5:53 AM 41.0 °F 39.0 °F 35.1 °F 79% 29.97 in 10.0 mi SE 3.5 mph - N/A   Clear
6:53 AM 41.0 °F 39.0 °F 35.1 °F 79% 29.98 in 10.0 mi SSE 3.5 mph - N/A   Clear
7:53 AM 39.0 °F - 35.1 °F 86% 29.97 in 10.0 mi Calm Calm - N/A   Clear
8:53 AM 44.1 °F 40.8 °F 36.0 °F 73% 29.96 in 10.0 mi SSE 5.8 mph - N/A   Clear
9:53 AM 48.9 °F - 39.0 °F 69% 29.97 in 10.0 mi South 8.1 mph - N/A   Clear
10:53 AM 53.1 °F - 39.9 °F 61% 29.96 in 10.0 mi South 9.2 mph - N/A   Clear
11:53 AM 57.9 °F - 39.9 °F 51% 29.94 in 10.0 mi South 11.5 mph 19.6 mph N/A   Clear
12:53 PM 59.0 °F - 39.9 °F 49% 29.92 in 10.0 mi South 11.5 mph 18.4 mph N/A   Clear
1:53 PM 61.0 °F - 41.0 °F 48% 29.88 in 10.0 mi South 10.4 mph - N/A   Clear
2:53 PM 60.1 °F - 39.9 °F 47% 29.86 in 10.0 mi South 11.5 mph 18.4 mph N/A   Clear
3:53 PM 62.1 °F - 41.0 °F 46% 29.83 in 10.0 mi South 10.4 mph 18.4 mph N/A   Clear
4:53 PM 63.0 °F - 39.9 °F 43% 29.81 in 10.0 mi South 11.5 mph 16.1 mph N/A   Clear
5:53 PM 61.0 °F - 41.0 °F 48% 29.80 in 10.0 mi SSE 3.5 mph - N/A   Clear
6:53 PM 57.9 °F - 43.0 °F 58% 29.80 in 10.0 mi ESE 3.5 mph - N/A   Clear
7:53 PM 57.0 °F - 43.0 °F 59% 29.81 in 10.0 mi ESE 3.5 mph - N/A   Clear
8:53 PM 57.0 °F - 42.1 °F 57% 29.81 in 10.0 mi SE 3.5 mph - N/A   Clear
9:53 PM 55.0 °F - 41.0 °F 59% 29.81 in 10.0 mi SE 3.5 mph - N/A   Clear
10:53 PM 53.1 °F - 41.0 °F 64% 29.80 in 10.0 mi Calm Calm - N/A   Clear
11:53 PM 53.1 °F - 41.0 °F 64% 29.79 in 10.0 mi Calm Calm - N/A   Clear